Starlink 11176

operational
NORAD ID: 60060 Int'l Des: 2024-113 Owner: SPXS Country: US Constellation: starlink
LEOCIRCULAR

Starlink 11176について

説明を読み込み中...

リアルタイム位置

3D地球を読み込み中...

次回通過

高度履歴

Altitude vs Time

uPlot chart will show altitude changes over time

軌道要素

1 60060U 24113B 25349.92283383 .00003263 00000-0 31770-4 0 9990
2 60060 53.1585 244.2281 0001270 77.2211 282.8949 15.69717154 86400
Epoch: Dec 15, 2025 • Age: 9 hours

現在のステータス

高度 370.5 km
速度 7.69 km/s
衛星直下点 -33.18°S, 21.03°E
打ち上げ日 Jun 19, 2024
運用期間 1.4 years
タイプ internet

技術仕様

分類 Payload
質量 960.00 kg
乾燥質量 910.00 kg
総質量 960.00 kg
長さ 0.30 m
直径 4.10 m
スパン 29.00 m
形状 Box + pan
製造者 SPXS
バスタイプ Starlink V2MD
フェーズステータス In Orbit
所有者/国 SPXS/US

大規模コンステレーション

Loading constellations...